Date,TemperatureHighF,TemperatureAvgF,TemperatureLowF,DewpointHighF,DewpointAvgF,DewpointLowF,HumidityHigh,HumidityAvg,HumidityLow,PressureMaxIn,PressureMinIn,WindSpeedMaxMPH,WindSpeedAvgMPH,GustSpeedMaxMPH,PrecipitationSumIn
2013-1-1,52.9,39.8,0.0,36.5,31.0,0.0,92,73,39,30.29,30.23,0,0,4,0.00
2013-1-2,56.5,38.6,27.1,38.3,29.9,0.0,97,75,38,30.26,30.17,0,0,0,0.00
2013-1-3,57.2,39.5,0.0,36.9,31.1,0.0,97,75,38,30.29,30.20,0,0,0,0.00
2013-1-4,58.1,41.9,30.7,43.1,32.3,29.2,97,73,35,30.32,30.20,0,0,0,0.00
2013-1-5,55.8,43.5,0.0,46.3,38.2,0.0,97,82,53,30.29,30.08,0,0,0,0.12
2013-1-6,49.6,44.1,35.6,45.4,41.4,34.6,97,91,73,30.23,30.08,5,1,9,0.16
2013-1-7,61.3,43.9,0.0,43.9,38.1,0.0,97,82,44,30.29,30.17,0,0,0,0.00
2013-1-8,62.1,45.5,0.0,48.8,38.2,0.0,97,79,42,30.26,30.14,0,0,4,0.00
2013-1-9,55.4,43.7,0.0,47.5,38.3,0.0,97,81,58,30.17,29.99,0,0,3,0.00
2013-1-10,54.7,42.8,0.0,34.9,29.6,0.0,86,61,36,30.20,30.08,0,0,0,0.00
2013-1-11,53.4,40.0,0.0,38.1,30.3,0.0,92,69,38,30.29,30.14,0,0,4,0.04
2013-1-12,53.4,38.5,0.0,39.0,26.7,0.0,97,67,30,30.29,30.14,0,0,0,0.00
2013-1-13,51.6,34.2,0.0,33.1,19.7,0.0,96,57,27,30.29,30.20,0,0,0,0.08
2013-1-14,54.5,40.7,0.0,21.6,15.3,0.0,66,36,26,30.43,30.23,0,0,11,0.00
2013-1-15,56.1,37.7,0.0,31.2,23.7,0.0,87,61,28,30.49,30.41,0,0,3,0.00
2013-1-16,57.2,39.3,0.0,32.5,27.2,0.0,93,65,35,30.46,30.29,0,0,0,0.12
2013-1-17,63.0,42.6,0.0,36.1,28.8,0.0,94,63,30,30.29,30.17,0,0,4,0.00
2013-1-18,66.2,43.3,0.0,36.6,28.6,0.0,90,61,27,30.26,30.17,0,0,3,0.00
2013-1-19,64.0,42.4,0.0,34.3,29.7,0.0,91,64,33,30.29,30.17,0,0,3,0.00
2013-1-20,65.3,42.7,0.0,36.1,29.3,0.0,92,64,26,30.26,30.14,0,0,6,0.00
2013-1-21,64.2,42.2,0.0,35.4,30.8,0.0,95,67,34,30.20,30.11,0,0,5,0.00
2013-1-22,65.8,45.5,0.0,40.8,34.6,0.0,95,69,34,30.14,30.02,0,0,0,0.00
2013-1-23,53.6,48.4,43.5,49.4,44.7,39.7,97,87,66,30.11,29.99,0,0,0,0.04
2013-1-24,57.0,52.0,48.4,52.8,49.8,47.6,97,92,78,30.20,30.08,0,0,0,0.16
2013-1-25,70.3,56.3,49.1,57.6,51.5,48.0,97,86,48,30.20,30.05,6,0,10,0.00
2013-1-26,61.3,51.1,42.3,54.0,42.6,32.9,97,76,35,30.08,30.02,9,1,13,0.00
2013-1-27,59.9,44.3,0.0,42.4,32.5,0.0,94,64,30,30.20,30.08,0,0,0,0.00
2013-1-28,62.4,45.5,0.0,39.0,34.2,0.0,93,66,33,30.32,30.17,0,0,0,0.00
2013-1-29,64.2,47.2,35.6,44.2,37.3,34.6,97,73,35,30.38,30.29,0,0,0,0.00
2013-1-30,71.4,52.4,39.7,42.2,35.7,29.8,97,58,29,30.35,30.29,0,0,3,0.00
2013-1-31,65.8,47.1,0.0,41.2,36.1,0.0,94,68,35,30.32,30.20,0,0,0,0.00
2013-2-1,68.0,48.9,0.0,45.8,38.5,0.0,97,71,35,30.23,30.14,0,0,0,0.00
2013-2-2,66.2,48.4,0.0,46.8,42.3,0.0,97,81,45,30.32,30.23,0,0,0,0.00
2013-2-3,65.8,50.7,0.0,46.5,40.9,0.0,97,72,37,30.29,30.14,0,0,0,0.00
2013-2-4,69.8,49.0,35.4,47.5,40.9,34.4,97,78,34,30.20,30.08,0,0,0,0.00
2013-2-5,60.6,51.3,43.5,46.9,42.1,37.2,96,73,46,30.17,30.08,0,0,0,0.00
2013-2-6,64.8,47.7,34.5,44.3,37.8,33.8,97,73,35,30.23,30.11,0,0,0,0.00
2013-2-7,59.9,45.8,35.6,46.0,36.7,29.8,97,74,36,30.20,30.02,0,0,3,0.00
2013-2-8,58.6,44.7,35.1,44.1,36.2,31.3,97,76,38,30.02,29.96,6,0,7,0.00
2013-2-9,62.8,43.1,0.0,38.6,27.6,0.0,97,61,25,30.11,29.99,0,0,0,0.00
2013-2-10,65.5,44.7,0.0,33.8,29.5,0.0,91,60,28,30.14,30.02,0,0,0,0.00
2013-2-11,65.5,45.9,0.0,40.0,29.1,0.0,97,59,24,30.26,30.08,0,0,4,0.00
2013-2-12,65.5,45.1,0.0,37.3,30.2,0.0,90,58,30,30.38,30.26,0,0,0,0.00
2013-2-13,71.1,48.4,0.0,38.5,34.0,0.0,90,62,26,30.35,30.23,0,0,0,0.00
2013-2-14,69.3,52.5,36.0,42.4,35.9,31.6,97,59,31,30.26,30.17,7,0,11,0.00
2013-2-15,72.1,52.7,0.0,43.2,38.1,0.0,93,62,32,30.29,30.23,0,0,0,0.00
2013-2-16,70.7,51.8,0.0,43.4,38.3,0.0,93,64,33,30.26,30.05,0,0,0,0.00
2013-2-17,70.7,50.8,0.0,46.7,39.2,0.0,97,69,30,30.08,29.96,0,0,0,0.00
2013-2-18,54.7,46.3,36.7,44.7,36.7,32.2,96,71,47,30.05,29.99,8,0,11,0.04
2013-2-19,52.5,44.5,36.9,41.7,35.4,29.7,88,71,47,29.99,29.76,5,0,14,0.44
2013-2-20,63.3,43.9,0.0,39.7,32.9,0.0,97,68,33,30.08,29.84,8,0,11,0.00
2013-2-21,64.8,46.5,0.0,44.7,32.4,0.0,97,63,26,30.20,30.05,8,0,11,0.00
2013-2-22,68.7,48.3,0.0,43.2,34.2,0.0,95,63,28,30.26,30.17,8,0,11,0.12
2013-2-23,63.5,51.5,0.0,47.2,35.3,0.0,95,58,27,30.26,30.17,6,0,13,0.00
2013-2-24,65.1,49.9,37.0,27.4,24.2,19.1,62,39,23,30.29,30.17,11,1,14,0.00
2013-2-25,69.1,48.6,0.0,42.2,33.7,0.0,89,59,32,30.29,30.17,6,0,10,0.00
2013-2-26,73.6,51.3,0.0,41.3,31.1,0.0,97,55,18,30.23,30.14,7,0,10,0.00
2013-2-27,74.7,52.1,33.1,39.9,31.9,28.8,86,53,21,30.38,30.23,0,0,7,0.00
2013-2-28,74.5,55.3,39.9,47.9,42.7,37.2,92,67,33,30.46,30.38,4,0,13,0.00
2013-3-1,71.6,51.4,41.4,48.1,43.3,40.2,97,78,34,30.43,30.26,4,0,9,0.00
2013-3-2,77.9,59.7,45.3,48.1,44.0,40.7,91,61,30,30.26,30.05,0,0,8,0.00
2013-3-3,69.4,56.7,48.6,48.7,44.1,37.7,87,66,33,30.11,30.05,9,1,14,0.00
2013-3-4,66.2,52.2,42.8,44.4,41.3,36.3,84,68,41,30.17,30.05,5,0,11,0.00
2013-3-5,67.5,52.4,40.1,44.1,37.1,31.1,93,61,30,30.08,29.84,10,1,18,0.04
2013-3-6,61.2,51.8,40.8,47.0,37.8,31.5,93,62,36,30.08,29.84,13,2,18,0.12
2013-3-7,63.1,48.5,36.9,45.5,36.8,30.8,96,68,33,30.02,29.87,8,0,12,0.04
2013-3-8,66.0,51.4,0.0,50.0,40.4,0.0,97,70,33,30.08,29.84,12,1,13,0.00
2013-3-9,71.6,54.6,0.0,45.0,37.2,0.0,94,57,24,30.32,30.08,8,0,13,0.00
2013-3-10,75.0,50.4,35.4,37.9,34.3,30.3,97,62,21,30.35,30.26,4,0,11,0.00
2013-3-11,79.3,56.1,0.0,40.9,37.0,0.0,89,54,24,30.29,30.11,6,0,10,0.00
2013-3-12,80.6,59.6,41.5,49.8,42.7,37.6,90,59,27,30.17,30.05,8,0,10,0.00
2013-3-13,82.6,62.2,44.6,49.3,45.9,42.4,94,61,29,30.20,30.08,6,0,9,0.00
2013-3-14,81.0,61.7,47.8,52.5,46.2,36.8,94,62,30,30.17,30.11,7,0,11,0.00
2013-3-15,78.8,58.6,43.9,46.4,42.5,38.5,88,60,30,30.14,30.05,5,0,9,0.00
2013-3-16,79.2,58.6,48.0,49.2,44.3,35.4,97,66,24,30.11,30.02,11,0,11,0.00
2013-3-17,76.8,56.1,41.2,45.7,40.5,33.5,95,62,26,30.17,30.05,4,0,12,0.00
2013-3-18,74.1,55.7,39.9,43.3,39.4,34.7,93,59,29,30.14,30.02,0,0,13,0.00
2013-3-19,77.0,57.0,45.7,46.3,41.2,31.5,88,61,27,30.17,30.08,5,0,12,0.04
2013-3-20,71.1,58.2,51.4,54.9,49.4,40.3,96,76,35,30.14,30.08,5,0,12,0.00
2013-3-21,70.9,55.8,43.7,48.8,39.9,35.6,85,59,28,30.14,30.02,8,0,9,0.00
2013-3-22,72.1,54.1,37.0,43.8,32.0,22.6,97,53,19,30.11,30.02,11,1,14,0.00
2013-3-23,74.5,53.9,0.0,35.4,30.9,0.0,84,47,21,30.17,30.05,4,0,11,0.00
2013-3-24,78.1,56.1,0.0,43.1,37.5,0.0,84,54,24,30.11,29.96,4,0,8,0.00
2013-3-25,66.4,51.8,0.0,45.4,39.6,0.0,93,65,37,30.05,29.96,7,0,13,0.00
2013-3-26,73.9,57.5,47.3,45.4,41.5,38.5,86,59,32,30.02,29.93,4,0,11,0.00
2013-3-27,73.8,58.9,46.9,49.7,44.9,40.3,84,62,35,30.02,29.96,10,0,12,0.00
2013-3-28,78.1,63.4,55.0,54.3,48.9,43.4,92,63,32,30.11,30.02,3,0,7,0.00
2013-3-29,79.3,63.1,47.5,53.2,46.1,43.3,96,60,30,30.11,30.02,6,0,11,0.00
2013-3-30,80.1,63.3,55.9,55.1,49.0,40.7,91,63,29,30.08,29.96,7,0,11,0.04
2013-3-31,74.5,60.3,50.5,54.8,48.9,40.9,97,71,31,30.08,30.02,6,0,10,0.00
2013-4-1,75.2,65.1,51.4,55.4,44.8,42.3,92,51,33,30.17,30.11,8,0,11,0.00
2013-4-2,76.5,58.3,0.0,50.0,45.8,0.0,96,67,32,30.20,30.08,5,0,7,0.00
2013-4-3,81.7,61.5,48.4,50.1,46.2,42.1,97,64,28,30.17,29.99,6,0,9,0.00
2013-4-4,73.4,59.5,53.1,55.6,50.4,44.2,92,74,42,30.14,29.99,8,0,12,0.16
2013-4-5,71.4,60.7,54.1,53.4,47.9,43.3,82,65,38,30.20,30.11,7,0,12,0.00
2013-4-6,70.9,60.4,53.4,50.7,48.7,44.8,83,67,42,30.23,30.14,5,0,11,0.00
2013-4-7,69.4,58.7,51.3,51.4,47.4,42.4,94,69,41,30.20,29.87,10,1,21,0.12
2013-4-8,70.2,57.1,45.7,50.9,34.5,26.6,93,47,22,30.02,29.81,15,2,28,0.00
2013-4-9,78.3,62.8,49.3,39.1,31.1,27.0,67,33,20,30.11,30.02,12,1,18,0.00
2013-4-10,90.1,66.5,0.0,49.6,40.9,0.0,75,43,20,30.20,30.05,7,0,15,0.00
2013-4-11,75.6,61.2,50.0,49.7,45.0,40.4,92,60,31,30.08,29.84,12,0,12,0.00
2013-4-12,83.5,59.1,43.0,46.9,41.7,33.3,93,60,23,29.93,29.84,9,0,10,0.00
2013-4-13,75.2,58.5,45.5,46.5,41.7,37.1,89,58,31,29.93,29.84,8,0,13,0.00
2013-4-14,72.9,56.7,42.8,46.0,39.9,35.4,92,59,27,29.96,29.87,8,1,14,0.00
2013-4-15,66.0,54.1,45.3,49.5,38.0,29.1,95,59,33,29.96,29.87,13,2,19,0.00
2013-4-16,70.2,61.0,0.0,37.5,28.2,0.0,73,30,20,30.17,29.96,15,1,18,0.00
2013-4-17,72.0,59.7,48.7,33.0,27.3,22.6,49,30,20,30.29,30.14,14,1,18,0.00
2013-4-18,80.4,59.9,39.7,36.6,32.9,29.4,77,41,20,30.29,30.20,7,0,11,0.00
2013-4-19,87.6,64.0,44.4,44.2,39.5,34.7,79,46,19,30.26,30.08,7,0,11,0.00
2013-4-20,85.6,73.2,56.7,48.2,38.9,33.4,67,31,19,30.11,29.99,10,1,12,0.00
2013-4-21,92.1,66.0,0.0,45.5,38.8,0.0,84,41,17,30.05,29.93,8,0,10,0.12
2013-4-22,93.4,69.2,0.0,49.1,40.4,0.0,80,40,16,29.99,29.84,4,0,11,0.00
2013-4-23,88.5,68.3,54.0,44.7,36.3,27.1,67,35,15,29.96,29.84,11,1,13,0.00
2013-4-24,78.6,59.5,0.0,48.1,43.2,0.0,85,59,26,29.96,29.84,10,0,12,0.00
2013-4-25,73.2,60.0,51.6,50.8,46.6,43.7,92,65,37,30.14,29.96,7,1,15,0.00
2013-4-26,79.5,61.5,49.1,49.5,45.6,43.2,87,60,31,30.23,30.14,4,0,10,0.00
2013-4-27,88.0,64.4,46.6,50.7,45.8,42.4,93,58,25,30.23,30.08,3,0,7,0.00
2013-4-28,93.9,75.8,64.0,48.5,46.0,44.0,57,38,19,30.05,29.90,0,0,0,0.00
2013-4-29,95.7,70.8,54.9,54.6,47.7,39.8,87,53,17,29.90,29.81,7,0,11,0.00
2013-4-30,86.0,72.8,60.3,50.0,38.4,25.9,69,31,19,29.84,29.79,8,0,9,0.00
2013-5-1,88.2,68.0,0.0,39.0,30.1,0.0,36,23,15,30.11,29.84,8,0,13,0.00
2013-5-2,97.0,71.5,0.0,43.2,35.2,0.0,66,30,13,30.17,30.08,7,0,12,0.00
2013-5-3,95.9,70.9,0.0,42.3,34.9,0.0,56,29,16,30.11,29.81,7,0,11,0.00
2013-5-4,93.7,69.5,0.0,43.7,37.5,0.0,63,33,16,29.84,29.55,8,0,12,0.00
2013-5-5,76.6,63.0,54.7,46.1,43.1,38.5,68,50,30,29.81,29.61,7,0,11,0.00
2013-5-6,74.7,63.3,56.3,56.7,48.0,41.0,80,59,32,29.99,29.81,5,0,9,0.28
2013-5-7,75.7,63.6,53.4,53.2,47.3,39.5,90,59,31,30.05,29.96,10,1,14,0.04
2013-5-8,72.3,60.1,52.0,51.2,47.9,42.5,92,67,36,30.17,30.05,10,1,12,0.00
2013-5-9,73.2,60.6,53.4,49.6,47.4,45.0,84,65,37,30.20,30.11,12,1,13,0.00
2013-5-10,78.6,68.1,56.1,51.0,49.4,48.1,79,53,36,30.20,30.14,7,1,10,0.00
2013-5-11,95.2,76.3,0.0,53.1,45.2,0.0,85,34,18,30.17,30.05,5,0,10,0.00
2013-5-12,88.0,68.6,0.0,51.2,46.9,0.0,82,49,27,30.14,30.05,6,0,12,0.00
2013-5-13,86.0,66.7,51.3,50.9,48.3,44.9,86,56,28,30.11,29.96,5,0,11,0.00
2013-5-14,82.0,65.3,53.1,50.3,45.9,39.8,85,54,30,30.02,29.93,6,0,12,0.00
2013-5-15,74.1,62.5,55.0,49.1,43.8,38.4,80,53,29,30.08,30.02,12,1,14,0.00
2013-5-16,73.6,61.4,55.0,54.0,48.9,42.0,89,66,38,30.05,29.99,11,1,19,0.00
2013-5-17,72.3,59.5,51.3,46.9,42.8,37.8,81,57,32,30.11,29.99,10,1,13,0.00
2013-5-18,79.2,62.7,47.7,49.5,44.9,40.7,86,57,28,30.14,30.08,8,0,13,0.00
2013-5-19,87.1,67.0,49.8,50.5,43.4,34.0,91,51,19,30.14,29.99,14,0,15,0.00
2013-5-20,94.1,69.3,0.0,46.7,39.4,0.0,80,38,16,30.02,29.93,8,1,18,0.00
2013-5-21,74.8,61.2,51.8,47.1,43.4,38.7,78,55,31,30.02,29.93,15,1,16,0.00
2013-5-22,70.5,56.7,43.7,42.2,34.8,26.3,83,49,22,30.02,29.93,12,1,20,0.00
2013-5-23,74.1,59.0,47.7,44.2,39.9,32.1,83,53,29,30.02,29.93,9,1,14,0.00
2013-5-24,77.5,58.1,43.3,44.8,40.0,34.5,87,57,22,30.02,29.96,15,1,16,0.00
2013-5-25,71.2,57.5,0.0,48.4,42.1,0.0,86,60,32,30.08,29.99,8,2,15,0.00
2013-5-26,74.7,61.9,52.7,52.3,47.8,43.5,90,63,35,30.17,30.08,11,2,15,0.00
2013-5-27,70.7,60.7,53.1,55.6,49.6,46.6,88,68,43,30.17,30.02,7,1,13,0.00
2013-5-28,75.0,64.3,57.9,56.5,51.7,44.2,93,67,34,30.05,29.93,8,1,13,0.00
2013-5-29,74.5,63.9,54.0,51.9,47.8,43.9,78,58,36,29.99,29.93,11,1,15,0.00
2013-5-30,81.7,60.8,47.3,49.9,43.2,37.0,95,60,22,30.02,29.96,7,0,12,0.00
2013-5-31,93.9,64.3,0.0,46.4,39.5,0.0,83,43,18,30.05,29.90,9,0,13,0.00
2013-6-1,98.1,71.0,0.0,48.0,42.7,0.0,73,40,16,29.96,29.79,7,0,11,0.00
2013-6-2,89.6,69.2,0.0,50.0,46.6,0.0,77,47,23,29.81,29.67,6,0,10,0.00
2013-6-3,84.0,64.0,53.8,49.5,47.8,44.2,83,59,29,29.84,29.73,9,1,15,0.00
2013-6-4,78.6,63.4,53.8,52.9,50.0,47.1,93,65,34,29.96,29.84,8,1,15,0.00
2013-6-5,79.2,63.4,54.1,51.6,48.9,45.7,90,63,33,30.02,29.90,8,1,11,0.00
2013-6-6,87.3,65.3,0.0,52.3,48.6,0.0,93,59,28,29.96,29.84,7,0,11,0.00
2013-6-7,102.9,70.4,0.0,79.1,48.5,0.0,92,51,17,29.90,29.73,6,0,11,0.00
2013-6-8,108.1,71.1,0.0,56.8,45.8,0.0,72,39,15,29.79,29.67,6,0,12,0.00
2013-6-9,79.5,66.7,59.4,54.7,52.3,49.6,82,62,38,29.87,29.79,15,2,20,0.00
2013-6-10,79.3,65.3,58.1,51.8,48.8,44.5,76,58,32,29.96,29.84,7,1,13,0.00
2013-6-11,82.6,67.1,55.8,52.3,49.9,47.5,85,58,31,29.99,29.90,6,0,12,0.00
2013-6-12,85.6,66.9,52.0,50.8,44.4,36.7,89,51,20,30.02,29.93,8,1,13,0.00
2013-6-13,85.3,66.4,49.1,49.5,43.3,34.9,86,50,21,30.11,30.02,8,0,13,0.00
2013-6-14,91.0,67.5,0.0,47.4,39.7,0.0,79,40,17,30.02,29.84,9,1,14,0.00
2013-6-15,80.2,63.2,50.9,49.8,46.6,41.9,83,58,30,30.02,29.84,7,1,13,0.00
2013-6-16,86.7,66.6,49.1,50.5,46.2,41.7,91,55,21,30.11,30.02,8,1,12,0.00
2013-6-17,80.4,64.7,53.1,52.8,49.8,44.8,90,62,30,30.11,30.05,11,1,14,0.00
2013-6-18,72.0,62.6,54.9,53.0,47.5,42.0,85,61,36,30.08,30.02,13,2,17,0.00
2013-6-19,79.0,64.1,51.1,49.6,44.9,39.2,85,54,28,30.08,30.02,11,1,15,0.00
2013-6-20,83.5,65.3,49.5,50.2,45.0,38.5,89,54,22,30.05,29.96,10,1,15,0.00
2013-6-21,87.4,67.4,50.2,49.5,44.7,36.7,88,51,19,29.99,29.93,10,1,14,0.00
2013-6-22,91.9,67.0,0.0,52.3,43.3,0.0,80,46,18,29.96,29.84,11,1,15,0.00
2013-6-23,75.9,64.8,58.1,58.0,55.4,51.1,89,73,46,29.90,29.84,8,1,15,0.00
2013-6-24,70.3,65.2,59.5,59.6,57.9,55.6,92,78,60,29.93,29.81,7,0,10,0.00
2013-6-25,81.0,71.0,63.7,61.5,57.9,53.4,87,65,46,29.99,29.90,9,0,12,0.00
2013-6-26,88.2,68.9,0.0,63.1,54.4,0.0,92,59,31,30.05,29.99,10,1,13,0.00
2013-6-27,96.3,71.2,0.0,60.6,51.3,0.0,92,52,20,30.08,30.02,7,0,12,0.00
2013-6-28,104.0,73.5,0.0,55.1,45.5,0.0,75,37,16,30.05,29.90,10,0,15,0.00
2013-6-29,105.4,76.6,0.0,53.1,45.6,0.0,66,33,15,29.93,29.79,10,1,13,0.00
2013-6-30,102.9,73.5,0.0,79.3,47.8,0.0,72,40,15,29.87,29.76,8,0,11,0.00
2013-7-1,104.2,76.0,0.0,79.4,48.4,0.0,76,40,16,29.84,29.81,7,0,11,0.00
2013-7-2,107.6,78.3,0.0,78.3,50.7,0.0,67,39,15,29.90,29.81,7,0,12,0.00
2013-7-3,102.6,77.5,0.0,78.9,49.2,0.0,78,40,17,29.90,29.76,4,0,11,0.00
2013-7-4,103.3,79.4,0.0,79.6,48.8,0.0,60,34,17,29.79,29.67,9,0,15,0.00
2013-7-5,81.9,67.2,57.6,51.4,48.5,40.7,80,53,33,29.81,29.73,11,2,16,0.00
2013-7-6,88.2,65.4,55.0,52.7,50.0,46.5,87,62,28,29.81,29.73,8,1,13,0.00
2013-7-7,90.7,64.0,0.0,54.1,47.1,0.0,93,56,22,29.87,29.76,4,0,11,0.00
2013-7-8,96.4,67.2,0.0,55.2,48.2,0.0,93,56,16,29.96,29.84,3,0,9,0.00
2013-7-9,101.8,68.4,0.0,56.0,44.1,0.0,89,43,15,30.02,29.90,6,0,11,0.00
2013-7-10,95.4,70.0,0.0,53.8,47.3,0.0,82,48,19,29.99,29.87,6,1,12,0.00
2013-7-11,86.2,65.2,54.9,54.5,50.1,44.0,93,63,24,29.96,29.87,13,1,13,0.00
2013-7-12,88.7,67.6,52.3,54.5,47.6,37.4,93,56,23,29.93,29.87,6,0,13,0.00
2013-7-13,94.6,68.6,0.0,52.0,44.2,0.0,87,46,17,29.96,29.90,9,0,13,0.00
2013-7-14,88.7,69.4,54.1,52.7,47.8,41.7,86,52,22,29.99,29.87,7,0,11,0.00
2013-7-15,81.9,63.5,54.0,53.1,50.2,46.9,92,66,31,29.93,29.81,10,1,15,0.00
2013-7-16,75.6,64.7,56.5,53.4,50.5,46.5,87,63,37,30.05,29.87,11,2,15,0.00
2013-7-17,83.8,68.1,57.7,54.0,51.3,47.3,81,59,30,30.11,30.02,8,0,11,0.00
2013-7-18,93.4,67.6,0.0,54.4,46.6,0.0,94,53,17,30.08,29.93,8,0,13,0.00
2013-7-19,95.5,69.0,0.0,55.3,48.7,0.0,92,54,19,29.96,29.81,5,0,10,0.00
2013-7-20,94.8,69.4,0.0,54.9,50.8,0.0,91,57,22,29.87,29.73,8,0,10,0.00
2013-7-21,97.3,71.6,0.0,54.4,50.0,0.0,87,52,19,29.87,29.76,7,0,10,0.00
2013-7-22,90.0,69.8,0.0,56.4,51.5,0.0,90,55,21,29.96,29.84,6,0,9,0.00
2013-7-23,91.0,71.6,0.0,55.1,48.5,0.0,68,45,24,29.99,29.93,6,0,13,0.00
2013-7-24,96.3,73.7,0.0,54.9,46.4,0.0,80,42,16,29.99,29.90,9,0,15,0.00
2013-7-25,89.8,64.2,0.0,52.5,42.9,0.0,71,42,20,30.02,29.93,10,0,12,0.00
2013-7-26,91.4,66.8,0.0,55.5,49.3,0.0,89,55,23,30.08,29.99,7,1,13,0.00
2013-7-27,89.2,68.5,0.0,56.8,52.3,0.0,95,61,28,30.05,29.84,8,1,11,0.00
2013-7-28,85.6,67.2,55.9,57.3,52.1,47.3,93,64,29,29.90,29.79,8,1,12,0.00
2013-7-29,84.9,64.9,52.9,54.6,50.7,45.1,94,66,29,30.02,29.84,10,0,14,0.00
2013-7-30,87.1,66.9,52.7,56.8,50.8,47.1,96,63,28,30.11,29.99,8,0,12,0.00
2013-7-31,85.5,66.6,55.2,55.1,49.9,43.6,94,61,24,30.08,30.02,9,1,12,0.00
2013-8-1,80.1,63.5,52.3,53.0,48.6,43.1,93,64,29,30.08,29.96,9,1,12,0.00
2013-8-2,87.1,66.3,50.4,54.0,48.8,44.5,94,60,24,29.99,29.90,10,0,12,0.00
2013-8-3,89.6,67.4,51.4,54.8,50.0,45.1,93,60,22,29.99,29.90,7,0,11,0.00
2013-8-4,83.8,64.8,54.3,54.3,51.3,46.1,92,67,30,30.02,29.93,7,1,12,0.00
2013-8-5,84.2,65.0,55.0,54.7,51.6,46.4,90,67,31,30.05,29.93,6,0,11,0.00
2013-8-6,79.5,64.5,55.0,54.5,51.7,47.7,92,67,34,30.05,29.99,9,1,13,0.00
2013-8-7,78.6,66.2,58.8,55.3,51.6,45.0,87,63,33,30.11,30.05,11,1,14,0.00
2013-8-8,81.0,65.2,57.4,56.5,53.2,48.7,90,69,34,30.05,29.93,11,1,15,0.00
2013-8-9,77.9,65.0,57.0,55.0,52.0,49.3,89,66,37,30.02,29.93,9,1,13,0.00
2013-8-10,82.9,66.6,57.9,56.8,53.3,47.4,93,67,31,30.08,29.99,10,1,11,0.00
2013-8-11,86.5,67.6,57.0,57.0,53.1,46.3,93,66,25,30.05,29.93,9,1,11,0.00
2013-8-12,88.2,67.6,0.0,56.3,48.4,0.0,95,57,22,29.99,29.93,7,0,11,0.08
2013-8-13,97.0,69.5,0.0,54.5,46.6,0.0,91,51,16,29.99,29.90,6,0,11,0.00
2013-8-14,90.5,69.0,0.0,58.2,50.0,0.0,87,57,19,29.99,29.90,9,0,12,0.00
2013-8-15,89.2,67.7,0.0,61.7,54.9,0.0,94,65,28,29.99,29.90,9,0,12,0.00
2013-8-16,91.4,70.6,0.0,64.3,50.9,0.0,96,52,23,29.99,29.93,11,0,13,0.00
2013-8-17,87.8,69.4,0.0,57.0,52.5,0.0,84,59,28,29.99,29.87,7,0,12,0.00
2013-8-18,102.6,74.1,0.0,60.1,50.7,0.0,94,52,16,29.90,29.79,6,0,9,0.00
2013-8-19,101.8,77.2,0.0,78.6,50.6,0.0,78,43,17,29.90,29.81,7,0,13,0.00
2013-8-20,93.0,70.2,0.0,57.4,50.5,0.0,83,51,23,29.90,29.81,9,1,13,0.00
2013-8-21,85.5,67.6,56.8,56.4,52.2,48.4,92,62,29,29.96,29.84,10,1,13,0.00
2013-8-22,81.1,65.8,55.2,55.9,51.6,46.4,93,64,33,29.99,29.90,11,1,13,0.00
2013-8-23,83.3,65.5,57.2,54.9,52.0,47.8,88,66,30,29.96,29.81,4,0,11,0.00
2013-8-24,85.8,68.3,54.5,58.6,52.6,47.8,93,63,29,29.93,29.87,10,1,14,0.00
2013-8-25,90.9,71.2,62.4,61.2,57.5,51.3,86,66,27,29.96,29.87,8,1,14,0.00
2013-8-26,84.7,69.7,59.2,57.9,53.0,45.5,83,60,29,30.02,29.90,9,1,11,0.00
2013-8-27,89.1,68.4,0.0,57.0,51.2,0.0,93,61,22,29.93,29.81,12,1,12,0.00
2013-8-28,88.5,69.9,56.3,60.8,56.0,50.9,96,67,29,29.96,29.87,10,1,11,0.00
2013-8-29,88.5,71.3,0.0,60.8,57.1,0.0,94,66,28,30.08,29.96,8,0,14,0.00
2013-8-30,96.4,74.3,0.0,62.3,53.8,0.0,96,58,18,30.05,29.93,9,0,11,0.00
2013-8-31,88.7,71.0,57.2,57.7,51.5,44.2,89,57,23,29.99,29.90,7,0,12,0.00
2013-9-1,89.2,71.9,61.0,59.8,53.7,47.8,81,58,25,29.96,29.87,9,1,15,0.00
2013-9-2,83.1,69.3,64.9,61.7,59.2,50.9,83,72,33,29.99,29.90,5,0,10,0.00
2013-9-3,81.7,68.8,57.9,59.6,53.1,43.1,93,63,26,30.02,29.96,9,1,14,0.00
2013-9-4,83.5,68.9,56.8,59.5,53.3,46.7,94,63,29,30.05,29.96,10,1,15,0.00
2013-9-5,84.2,69.5,59.5,56.9,52.7,45.1,83,60,27,30.02,29.96,10,1,14,0.00
2013-9-6,95.9,70.0,0.0,57.1,46.9,0.0,96,52,17,30.02,29.84,5,0,11,0.00
2013-9-7,100.9,72.5,0.0,52.5,43.5,0.0,81,40,15,29.90,29.79,7,0,11,0.00
2013-9-8,100.6,73.3,0.0,56.6,45.7,0.0,78,40,16,29.87,29.76,5,0,9,0.00
2013-9-9,101.1,73.2,0.0,78.4,45.2,0.0,78,40,16,29.81,29.70,5,0,13,0.00
2013-9-10,87.1,70.2,59.4,58.7,54.2,48.6,89,61,29,29.90,29.76,8,1,15,0.00
2013-9-11,80.8,67.4,57.4,57.7,54.5,50.3,91,66,35,29.99,29.90,10,1,13,0.00
2013-9-12,85.1,69.0,60.1,58.8,56.7,52.4,88,68,34,29.99,29.87,8,0,13,0.00
2013-9-13,86.4,67.8,59.0,58.2,54.0,48.6,91,66,30,29.93,29.79,7,0,11,0.00
2013-9-14,75.4,62.3,56.3,55.9,54.0,52.1,92,76,45,29.84,29.79,9,0,11,0.00
2013-9-15,83.5,66.6,54.3,58.6,53.2,48.3,97,67,31,29.90,29.81,13,1,13,0.00
2013-9-16,86.2,69.2,57.4,61.2,54.2,46.4,96,65,28,29.90,29.81,7,0,13,0.08
2013-9-17,78.4,68.2,58.3,55.3,50.2,45.3,83,56,32,29.90,29.84,9,1,13,0.12
2013-9-18,87.8,67.6,51.1,52.4,44.8,38.7,93,52,19,29.93,29.84,8,0,12,0.00
2013-9-19,95.9,67.8,0.0,48.1,41.3,0.0,85,45,16,29.87,29.76,4,0,13,0.00
2013-9-20,78.4,64.7,52.3,56.9,52.4,45.3,88,66,40,29.90,29.79,13,1,15,0.00
2013-9-21,72.0,63.9,55.9,59.3,54.8,48.4,91,73,44,29.93,29.84,6,0,12,0.47
2013-9-22,77.2,62.5,49.8,58.2,50.3,43.4,97,70,32,30.02,29.90,10,0,12,0.00
2013-9-23,87.1,66.6,50.9,58.4,51.9,45.0,97,66,24,30.05,29.93,8,0,11,0.00
2013-9-24,78.6,64.4,55.2,60.2,51.3,42.8,97,67,31,30.02,29.93,10,1,15,0.00
2013-9-25,74.5,61.5,51.1,49.2,43.0,38.2,84,54,31,29.96,29.84,12,1,15,0.00
2013-9-26,78.4,60.2,45.5,51.6,40.7,33.8,96,57,21,29.99,29.84,9,0,13,0.00
2013-9-27,82.8,61.6,44.1,48.7,37.7,30.1,93,49,19,30.11,29.99,8,0,11,0.00
2013-9-28,89.2,64.4,45.1,54.4,39.5,30.5,84,48,15,30.11,29.99,8,0,12,0.00
2013-9-29,80.2,65.3,52.7,57.6,53.2,48.8,95,70,34,30.14,30.05,10,0,12,0.00
2013-9-30,80.2,67.0,57.6,61.9,55.7,51.8,94,71,38,30.11,29.99,7,0,11,0.00
2013-10-1,79.2,62.7,50.2,54.2,46.3,42.0,94,60,28,30.02,29.93,4,0,10,0.00
2013-10-2,75.0,54.9,48.4,50.6,46.2,41.5,91,75,31,30.02,29.96,0,0,0,0.00
2013-10-3,77.0,61.6,44.4,50.8,36.5,26.4,95,49,20,30.08,29.96,14,1,16,0.00
2013-10-4,80.8,67.9,54.0,36.2,29.7,24.0,51,25,19,30.14,29.99,10,2,17,0.00
2013-10-5,86.7,64.3,44.8,40.2,35.3,29.9,74,40,16,30.23,30.11,7,0,9,0.00
2013-10-6,89.1,61.6,0.0,43.6,37.0,0.0,84,45,17,30.14,30.02,6,0,9,0.00
2013-10-7,88.7,65.8,48.7,45.5,38.8,26.9,81,44,16,30.02,29.87,10,0,14,0.00
2013-10-8,80.8,61.6,46.4,45.6,40.5,34.3,86,52,22,29.93,29.73,4,0,10,0.08
2013-10-9,74.1,58.0,46.6,49.2,41.6,36.1,94,60,29,29.79,29.64,7,0,12,0.00
2013-10-10,77.7,59.8,46.0,46.5,41.1,36.6,85,56,24,30.02,29.76,6,0,9,0.00
2013-10-11,75.7,58.1,44.6,50.9,43.7,38.3,94,64,31,30.08,29.99,6,0,11,0.00
2013-10-12,78.3,56.7,0.0,48.4,41.7,0.0,93,63,25,30.02,29.90,6,0,12,0.00
2013-10-13,78.1,58.4,43.9,51.6,40.9,34.2,95,60,22,30.08,29.93,10,0,11,0.00
2013-10-14,82.9,60.1,43.0,46.3,38.1,29.8,93,52,20,30.14,30.02,0,0,11,0.00
2013-10-15,82.2,60.7,42.1,42.8,36.1,28.7,86,48,19,30.08,29.96,5,0,9,0.00
2013-10-16,86.5,62.1,42.6,43.3,37.0,30.5,83,47,18,30.11,30.02,5,0,9,0.00
2013-10-17,86.4,62.0,43.5,45.3,36.6,27.8,85,46,18,30.11,29.96,7,0,9,0.00
2013-10-18,87.6,62.0,0.0,42.0,37.6,0.0,83,46,18,30.08,29.99,0,0,7,0.00
2013-10-19,87.4,62.8,44.2,47.5,40.6,34.8,87,52,18,30.11,29.99,0,0,4,0.00
2013-10-20,88.0,62.7,44.1,47.3,41.3,33.0,89,54,18,30.05,29.90,3,0,8,0.00
2013-10-21,84.6,61.2,46.8,51.4,44.7,38.1,96,62,20,30.02,29.90,0,0,0,0.00
2013-10-22,86.9,61.7,44.8,54.0,45.3,40.0,96,63,20,30.05,29.90,0,0,5,0.00
2013-10-23,82.4,59.5,47.1,52.2,46.9,44.0,97,69,27,29.99,29.87,0,0,6,0.00
2013-10-24,65.5,55.4,48.0,49.8,46.5,43.7,93,74,46,30.11,29.99,6,0,13,0.00
2013-10-25,80.2,58.9,45.0,49.8,45.7,40.4,96,68,26,30.20,30.08,0,0,0,0.00
2013-10-26,84.9,59.9,0.0,50.7,43.3,0.0,95,62,21,30.17,30.02,0,0,8,0.00
2013-10-27,65.5,53.8,0.0,53.4,44.7,0.0,97,73,46,30.05,29.67,21,3,27,0.00
2013-10-28,66.9,55.7,46.2,49.7,42.7,36.5,94,65,34,29.87,29.70,10,1,23,0.00
2013-10-29,67.5,56.3,46.4,47.1,43.2,38.0,83,64,35,30.08,29.87,9,0,10,0.00
2013-10-30,72.5,53.2,0.0,47.8,40.4,0.0,95,66,31,30.17,30.08,3,0,7,0.00
2013-10-31,75.6,55.4,40.3,47.1,39.8,34.5,94,63,25,30.20,30.08,0,0,6,0.00
2013-11-1,67.8,46.9,0.0,47.5,39.9,0.0,93,78,35,30.17,30.05,0,0,0,0.00
2013-11-2,77.0,55.2,40.8,49.8,42.5,38.1,94,68,28,30.05,29.93,5,0,10,0.00
2013-11-3,68.5,51.7,0.0,51.1,34.8,0.0,97,60,22,30.05,29.93,5,0,7,0.00
2013-11-4,71.2,51.7,0.0,40.3,30.1,0.0,92,50,21,30.08,29.93,7,0,12,0.12
2013-11-5,75.9,56.1,40.3,37.5,31.1,26.7,69,42,21,30.26,30.08,7,0,14,0.00
2013-11-6,71.2,54.1,0.0,41.5,35.7,0.0,84,54,25,30.29,30.20,6,0,13,0.00
2013-11-7,78.1,57.6,45.1,44.4,37.9,31.6,83,54,21,30.20,30.08,4,0,7,0.00
2013-11-8,79.0,57.2,41.5,46.3,41.2,38.0,89,61,24,30.11,29.96,6,0,11,0.00
2013-11-9,78.3,56.5,41.5,49.8,41.5,37.3,94,63,24,30.05,29.96,5,0,7,0.00
2013-11-10,73.8,53.8,0.0,48.3,42.3,0.0,94,69,31,30.14,30.05,7,0,7,0.04
2013-11-11,70.5,55.9,43.7,49.8,45.4,39.8,97,72,33,30.17,30.08,0,0,0,0.00
2013-11-12,78.8,60.2,47.8,49.3,44.0,35.9,82,60,22,30.29,30.17,0,0,7,0.00
2013-11-13,80.8,56.9,0.0,46.8,41.6,0.0,93,62,23,30.29,30.11,0,0,0,0.00
2013-11-14,75.2,55.0,45.3,52.6,46.5,43.2,97,77,34,30.14,29.90,0,0,6,0.00
2013-11-15,69.4,51.4,0.0,48.7,39.4,0.0,97,69,26,29.90,29.76,6,0,10,0.00
2013-11-16,66.4,49.1,0.0,46.3,38.8,0.0,95,70,33,29.96,29.79,7,0,9,0.00
2013-11-17,67.6,52.6,0.0,51.7,41.9,0.0,97,71,34,30.11,29.96,7,0,8,0.00
2013-11-18,63.7,50.2,39.2,46.1,41.6,37.4,96,75,38,30.17,30.08,5,0,9,0.00
2013-11-19,67.1,55.3,47.1,55.5,49.1,44.0,97,81,44,30.11,29.96,0,0,0,0.28
2013-11-20,63.9,56.7,51.3,60.5,54.9,50.4,97,94,72,29.96,29.87,4,0,9,0.75
2013-11-21,62.6,55.0,49.6,51.5,34.0,19.8,97,53,25,29.99,29.90,17,2,20,0.16
2013-11-22,69.4,56.0,43.3,33.5,23.8,15.4,66,31,19,30.26,29.90,15,2,21,0.00
2013-11-23,66.9,48.7,0.0,41.0,33.5,0.0,88,60,26,30.14,29.99,5,0,8,0.00
2013-11-24,68.2,47.7,0.0,42.2,36.3,0.0,94,69,30,30.29,30.14,4,0,9,0.00
2013-11-25,66.6,47.3,0.0,44.9,37.4,0.0,97,72,34,30.35,30.26,4,0,7,0.00
2013-11-26,64.4,48.8,0.0,46.9,38.4,0.0,96,71,34,30.29,30.05,5,0,9,0.00
2013-11-27,65.7,49.7,0.0,47.0,40.9,0.0,95,73,39,30.05,29.87,6,0,8,0.00
2013-11-28,70.9,51.2,39.6,48.6,39.6,36.0,97,70,32,30.11,29.90,0,0,5,0.00
2013-11-29,72.3,50.6,36.7,45.9,38.1,35.1,96,68,27,30.23,30.11,0,0,0,0.00
2013-11-30,70.0,49.7,0.0,45.4,38.3,0.0,95,70,32,30.29,30.20,5,0,5,0.00
2013-12-1,73.6,51.2,37.0,46.5,38.9,35.7,96,69,28,30.35,30.23,0,0,7,0.00
2013-12-2,68.4,50.3,36.7,52.6,42.2,35.1,97,78,35,30.26,29.96,5,0,9,0.08
2013-12-3,56.3,49.6,36.1,53.7,33.6,19.5,97,56,35,29.96,29.87,9,1,15,0.00
2013-12-4,52.9,34.6,0.0,27.6,19.7,0.0,79,57,26,30.11,29.96,5,0,7,0.36
2013-12-5,54.0,32.5,0.0,23.5,17.3,0.0,82,56,26,30.20,30.11,0,0,7,0.00
2013-12-6,55.0,40.1,0.0,46.2,27.6,0.0,96,64,31,30.20,29.90,10,0,13,0.56
2013-12-7,51.3,41.7,0.0,45.6,27.7,0.0,97,61,32,30.26,29.93,12,1,15,0.16
2013-12-8,47.7,33.6,0.0,29.9,20.9,0.0,92,61,32,30.35,30.26,7,0,13,0.00
2013-12-9,49.1,35.9,0.0,22.6,17.6,0.0,78,48,31,30.43,30.32,8,1,14,0.00
2013-12-10,53.6,36.0,0.0,32.0,22.9,0.0,89,62,30,30.43,30.23,8,0,11,0.00
2013-12-11,55.0,39.4,27.1,33.2,26.1,23.5,91,63,32,30.26,30.20,11,0,12,0.00
2013-12-12,61.5,40.6,0.0,33.9,27.8,0.0,89,64,30,30.29,30.17,0,0,0,0.00
2013-12-13,62.2,41.0,0.0,37.2,28.6,0.0,95,66,27,30.35,30.26,0,0,0,0.00
2013-12-14,60.8,42.6,0.0,35.7,29.2,0.0,91,64,30,30.41,30.32,7,0,13,0.00
2013-12-15,64.8,50.2,0.0,36.5,31.5,0.0,89,51,29,30.38,30.26,11,0,11,0.00
2013-12-16,67.8,47.5,33.8,40.8,32.4,29.2,92,62,27,30.26,30.14,5,0,10,0.00
2013-12-17,65.7,47.6,35.1,39.9,34.3,31.4,89,64,32,30.20,30.05,3,0,6,0.00
2013-12-18,64.6,49.5,38.5,46.0,39.3,33.8,93,72,33,30.05,29.79,5,0,10,0.00
2013-12-19,61.9,46.5,36.0,45.4,31.8,22.1,95,62,26,29.96,29.73,16,0,16,0.00
2013-12-20,64.2,44.6,30.4,23.7,20.2,17.0,64,41,18,30.02,29.93,4,0,6,0.00
2013-12-21,66.7,45.5,0.0,38.5,30.7,0.0,85,58,28,30.11,29.99,0,0,5,0.00
2013-12-22,67.5,46.9,33.4,42.9,32.9,29.1,96,65,27,30.32,30.11,6,0,11,0.00
2013-12-23,64.8,46.1,33.6,39.1,33.0,0.0,90,64,32,30.41,30.29,6,0,9,0.00
2013-12-24,72.0,48.9,35.1,40.4,33.4,31.2,89,61,24,30.35,30.23,6,0,12,0.00
2013-12-25,65.1,46.3,33.1,41.2,33.7,29.6,92,66,33,30.32,30.23,6,0,13,0.00
2013-12-26,67.6,45.6,0.0,40.4,33.0,0.0,93,66,29,30.29,30.20,7,0,11,0.00
2013-12-27,59.5,39.1,31.8,40.3,33.0,28.9,92,80,43,30.26,30.14,0,0,0,0.00
2013-12-28,69.1,45.3,30.2,37.7,29.7,23.9,97,62,22,30.17,30.02,8,0,10,0.00
2013-12-29,67.3,50.5,36.9,29.5,25.1,17.5,72,40,23,30.35,30.11,6,0,12,0.04
2013-12-30,67.6,44.8,0.0,35.5,30.7,0.0,88,62,26,30.29,30.20,0,0,5,0.00
2013-12-31,64.8,42.4,0.0,37.5,31.5,0.0,90,68,33,30.29,30.17,0,0,0,0.00
2014-1-1,67.8,44.9,0.0,35.2,29.1,0.0,91,60,24,30.23,30.14,0,0,5,0.00
2014-1-2,67.6,47.7,33.6,36.0,31.0,28.8,87,57,26,30.23,30.08,5,0,9,0.00